iso_date,epoch_date,Year,Hour,Min,DOY,POS_DOY,Lat,Lon,BP,Ts,Ta,has_bp,has_ts,has_ta,BuoyID,Buoy_Type,Buoy_Owner,Logistics,Hemisphere
2019-10-09T19:38:21Z,1570649901,2019,19,38,282.8183,282.8183,85.12628,135.74603,1010.8,-10.78,-10.62,yes,yes,yes,300434063384820,SIMB3,Dart,MOSAiC,North
2019-10-10T03:01:17Z,1570676478,2019,3,1,283.1259,283.1259,85.13413,135.43328,1015.5,-2.08,-11.94,yes,yes,yes,300434063384820,SIMB3,Dart,MOSAiC,North
2019-10-10T07:02:29Z,1570690950,2019,7,2,283.2934,283.2934,85.12788,135.32902,1017.5,-2.08,-13.88,yes,yes,yes,300434063384820,SIMB3,Dart,MOSAiC,North
2019-10-10T11:01:14Z,1570705275,2019,11,1,283.4592,283.4592,85.12403,135.28742,1018.2,-2.08,-19.31,yes,yes,yes,300434063384820,SIMB3,Dart,MOSAiC,North
2019-10-10T15:01:17Z,1570719678,2019,15,1,283.6259,283.6259,85.11755,135.40741,1016.8,-2.08,-15.31,yes,yes,yes,300434063384820,SIMB3,Dart,MOSAiC,North
2019-10-10T19:01:46Z,1570734107,2019,19,1,283.7929,283.7929,85.10098,135.5575,1015.4,-2.08,-15.75,yes,yes,yes,300434063384820,SIMB3,Dart,MOSAiC,North
2019-10-10T23:01:32Z,1570748492,2019,23,1,283.9594,283.9594,85.08434,135.62298,1015.2,-2.08,-17.0,yes,yes,yes,300434063384820,SIMB3,Dart,MOSAiC,North
2019-10-11T03:01:17Z,1570762878,2019,3,1,284.1259,284.1259,85.0689,135.73986,1014.8,-2.08,-14.88,yes,yes,yes,300434063384820,SIMB3,Dart,MOSAiC,North
2019-10-11T07:01:46Z,1570777307,2019,7,1,284.2929,284.2929,85.05217,135.76782,1014.6,-2.08,-12.69,yes,yes,yes,300434063384820,SIMB3,Dart,MOSAiC,North
2019-10-11T11:01:40Z,1570791701,2019,11,1,284.4595,284.4595,85.04524,135.82374,1013.3,-2.08,-14.31,yes,yes,yes,300434063384820,SIMB3,Dart,MOSAiC,North
2019-10-11T15:01:17Z,1570806078,2019,15,1,284.6259,284.6259,85.03975,135.9441,1011.9,-2.08,-13.5,yes,yes,yes,300434063384820,SIMB3,Dart,MOSAiC,North
2019-10-11T23:01:06Z,1570834866,2019,23,1,284.9591,284.9591,85.05375,135.95966,1005.7,-2.08,-12.0,yes,yes,yes,300434063384820,SIMB3,Dart,MOSAiC,North
2019-10-12T03:01:00Z,1570849260,2019,3,1,285.1257,285.1257,85.06441,135.93669,1001.9,-2.08,-16.06,yes,yes,yes,300434063384820,SIMB3,Dart,MOSAiC,North
2019-10-12T07:01:37Z,1570863698,2019,7,1,285.2928,285.2928,85.06817,135.7775,1000.5,-2.08,-16.31,yes,yes,yes,300434063384820,SIMB3,Dart,MOSAiC,North
2019-10-12T11:02:06Z,1570878127,2019,11,2,285.4598,285.4598,85.07403,135.60672,1000.5,-2.08,-17.5,yes,yes,yes,300434063384820,SIMB3,Dart,MOSAiC,North
2019-10-12T15:01:00Z,1570892460,2019,15,0,285.6257,285.6257,85.07337,135.49766,1001.5,-2.08,-14.19,yes,yes,yes,300434063384820,SIMB3,Dart,MOSAiC,North
2019-10-12T19:01:55Z,1570906915,2019,19,1,285.793,285.793,85.07055,135.28264,1003.3,-2.08,-20.0,yes,yes,yes,300434063384820,SIMB3,Dart,MOSAiC,North
2019-10-12T23:01:14Z,1570921275,2019,23,1,285.9592,285.9592,85.06968,135.11525,1004.1,-2.08,-20.0,yes,yes,yes,300434063384820,SIMB3,Dart,MOSAiC,North
2019-10-13T03:01:17Z,1570935678,2019,3,1,286.1259,286.1259,85.06348,135.00907,1004.9,-2.08,-25.75,yes,yes,yes,300434063384820,SIMB3,Dart,MOSAiC,North
2019-10-13T11:01:32Z,1570964492,2019,11,1,286.4594,286.4594,85.04557,134.89837,1002.6,-2.08,-19.31,yes,yes,yes,300434063384820,SIMB3,Dart,MOSAiC,North
2019-10-13T15:01:00Z,1570978860,2019,15,1,286.6257,286.6257,85.02558,134.85968,1001.8,-2.08,-13.25,yes,yes,yes,300434063384820,SIMB3,Dart,MOSAiC,North
2019-10-13T19:01:29Z,1570993289,2019,19,1,286.7927,286.7927,85.00813,134.66261,1003.1,-2.08,-14.12,yes,yes,yes,300434063384820,SIMB3,Dart,MOSAiC,North
2019-10-13T23:01:23Z,1571007684,2019,23,1,286.9593,286.9593,84.9961,134.52691,1004.8,-2.08,-14.88,yes,yes,yes,300434063384820,SIMB3,Dart,MOSAiC,North
2019-10-14T03:01:09Z,1571022069,2019,3,1,287.1258,287.1258,84.98437,134.46685,1006.6,-2.08,-13.69,yes,yes,yes,300434063384820,SIMB3,Dart,MOSAiC,North
2019-10-14T07:01:29Z,1571036489,2019,7,1,287.2927,287.2927,84.9733,134.37194,1008.4,-2.08,-19.25,yes,yes,yes,300434063384820,SIMB3,Dart,MOSAiC,North
2019-10-14T11:01:32Z,1571050892,2019,11,1,287.4594,287.4594,84.97014,134.31704,1009.0,-2.08,-21.19,yes,yes,yes,300434063384820,SIMB3,Dart,MOSAiC,North
2019-10-14T15:01:09Z,1571065269,2019,15,1,287.6258,287.6258,84.96682,134.36565,1009.6,-2.08,-22.88,yes,yes,yes,300434063384820,SIMB3,Dart,MOSAiC,North
2019-10-14T19:01:46Z,1571079707,2019,19,1,287.7929,287.7929,84.96514,134.33963,1010.8,-2.08,-22.31,yes,yes,yes,300434063384820,SIMB3,Dart,MOSAiC,North
2019-10-14T23:02:06Z,1571094127,2019,23,2,287.9598,287.9598,84.96952,134.3088,1011.4,-2.08,-21.62,yes,yes,yes,300434063384820,SIMB3,Dart,MOSAiC,North
2019-10-15T03:01:09Z,1571108469,2019,3,1,288.1258,288.1258,84.9709,134.32094,1013.5,-2.08,-24.44,yes,yes,yes,300434063384820,SIMB3,Dart,MOSAiC,North
2019-10-15T07:01:37Z,1571122898,2019,7,1,288.2928,288.2928,84.97074,134.24139,1014.7,-2.08,-24.38,yes,yes,yes,300434063384820,SIMB3,Dart,MOSAiC,North
2019-10-15T11:02:41Z,1571137361,2019,11,2,288.4602,288.4602,84.97442,134.16414,1015.6,-2.08,-18.69,yes,yes,yes,300434063384820,SIMB3,Dart,MOSAiC,North
2019-10-15T15:01:26Z,1571151686,2019,15,1,288.626,288.626,84.97361,134.12271,1016.2,-2.08,-15.81,yes,yes,yes,300434063384820,SIMB3,Dart,MOSAiC,North
2019-10-15T19:01:37Z,1571166098,2019,19,1,288.7928,288.7928,84.97131,133.95303,1017.0,-2.08,-15.56,yes,yes,yes,300434063384820,SIMB3,Dart,MOSAiC,North
2019-10-15T23:01:32Z,1571180492,2019,23,1,288.9594,288.9594,84.97446,133.78175,1017.2,-2.08,-16.0,yes,yes,yes,300434063384820,SIMB3,Dart,MOSAiC,North
2019-10-16T03:01:35Z,1571194895,2019,3,1,289.1261,289.1261,84.97162,133.71498,1017.1,-2.08,-15.75,yes,yes,yes,300434063384820,SIMB3,Dart,MOSAiC,North
2019-10-16T07:02:47Z,1571209367,2019,7,2,289.2936,289.2936,84.96807,133.57846,1017.0,-2.08,-13.44,yes,yes,yes,300434063384820,SIMB3,Dart,MOSAiC,North
2019-10-16T11:01:23Z,1571223684,2019,11,1,289.4593,289.4593,84.97052,133.45085,1015.8,-2.08,-12.81,yes,yes,yes,300434063384820,SIMB3,Dart,MOSAiC,North
2019-10-16T15:01:26Z,1571238086,2019,15,1,289.626,289.626,84.96869,133.39273,1014.8,-2.08,-11.88,yes,yes,yes,300434063384820,SIMB3,Dart,MOSAiC,North
2019-10-16T19:01:29Z,1571252489,2019,19,1,289.7927,289.7927,84.96453,133.25414,1013.7,-2.08,-12.0,yes,yes,yes,300434063384820,SIMB3,Dart,MOSAiC,North
2019-10-16T23:01:14Z,1571266875,2019,23,1,289.9592,289.9592,84.96441,133.1165,1012.5,-2.08,-12.19,yes,yes,yes,300434063384820,SIMB3,Dart,MOSAiC,North
2019-10-17T03:01:35Z,1571281295,2019,3,1,290.1261,290.1261,84.96319,133.10857,1012.0,-2.08,-12.62,yes,yes,yes,300434063384820,SIMB3,Dart,MOSAiC,North
2019-10-17T07:01:37Z,1571295698,2019,7,1,290.2928,290.2928,84.95964,133.06592,1011.4,-2.08,-13.25,yes,yes,yes,300434063384820,SIMB3,Dart,MOSAiC,North
2019-10-17T11:01:40Z,1571310101,2019,11,1,290.4595,290.4595,84.96239,133.05338,1011.2,-2.08,-13.56,yes,yes,yes,300434063384820,SIMB3,Dart,MOSAiC,North
2019-10-17T15:01:26Z,1571324486,2019,15,1,290.626,290.626,84.96625,133.14905,1011.3,-2.08,-13.69,yes,yes,yes,300434063384820,SIMB3,Dart,MOSAiC,North
2019-10-17T19:01:46Z,1571338907,2019,19,1,290.7929,290.7929,84.97362,133.17525,1011.8,-2.08,-14.56,yes,yes,yes,300434063384820,SIMB3,Dart,MOSAiC,North
2019-10-17T23:01:23Z,1571353284,2019,23,1,290.9593,290.9593,84.99203,133.20863,1011.9,-2.1,-16.12,yes,yes,yes,300434063384820,SIMB3,Dart,MOSAiC,North
2019-10-18T03:01:35Z,1571367695,2019,3,1,291.1261,291.1261,85.01078,133.29282,1011.8,-2.08,-16.12,yes,yes,yes,300434063384820,SIMB3,Dart,MOSAiC,North
2019-10-18T07:01:29Z,1571382089,2019,7,1,291.2927,291.2927,85.03,133.2905,1011.9,-2.08,-15.12,yes,yes,yes,300434063384820,SIMB3,Dart,MOSAiC,North
2019-10-18T15:01:09Z,1571410869,2019,15,1,291.6258,291.6258,85.08303,133.39454,1011.5,-2.08,-14.25,yes,yes,yes,300434063384820,SIMB3,Dart,MOSAiC,North
2019-10-18T19:02:03Z,1571425324,2019,19,2,291.7931,291.7931,85.10577,133.39563,1011.8,-2.08,-14.56,yes,yes,yes,300434063384820,SIMB3,Dart,MOSAiC,North
2019-10-18T23:01:23Z,1571439684,2019,23,1,291.9593,291.9593,85.13018,133.38719,1012.4,-2.08,-14.38,yes,yes,yes,300434063384820,SIMB3,Dart,MOSAiC,North
2019-10-19T03:01:17Z,1571454078,2019,3,1,292.1259,292.1259,85.14123,133.36931,1012.4,-2.08,-15.81,yes,yes,yes,300434063384820,SIMB3,Dart,MOSAiC,North
2019-10-19T11:01:23Z,1571482884,2019,11,1,292.4593,292.4593,85.16931,133.13415,1011.0,-2.08,-13.75,yes,yes,yes,300434063384820,SIMB3,Dart,MOSAiC,North
2019-10-19T15:01:26Z,1571497286,2019,15,1,292.626,292.626,85.17715,133.02414,1009.9,-2.08,-11.06,yes,yes,yes,300434063384820,SIMB3,Dart,MOSAiC,North
2019-10-19T19:01:37Z,1571511698,2019,19,1,292.7928,292.7928,85.18229,132.89866,1008.3,-2.1,-12.06,yes,yes,yes,300434063384820,SIMB3,Dart,MOSAiC,North
2019-10-19T23:01:14Z,1571526075,2019,23,1,292.9592,292.9592,85.19346,132.81118,1006.9,-2.08,-13.19,yes,yes,yes,300434063384820,SIMB3,Dart,MOSAiC,North
2019-10-20T03:01:17Z,1571540478,2019,3,1,293.1259,293.1259,85.20199,132.77405,1006.2,-2.08,-14.06,yes,yes,yes,300434063384820,SIMB3,Dart,MOSAiC,North
2019-10-20T07:01:29Z,1571554889,2019,7,1,293.2927,293.2927,85.21201,132.70034,1005.8,-2.08,-16.0,yes,yes,yes,300434063384820,SIMB3,Dart,MOSAiC,North
2019-10-20T11:01:14Z,1571569275,2019,11,1,293.4592,293.4592,85.23028,132.67462,1005.8,-2.08,-11.25,yes,yes,yes,300434063384820,SIMB3,Dart,MOSAiC,North
2019-10-20T15:01:17Z,1571583678,2019,15,1,293.6259,293.6259,85.24835,132.77965,1008.5,-2.08,-15.12,yes,yes,yes,300434063384820,SIMB3,Dart,MOSAiC,North
2019-10-20T19:01:37Z,1571598098,2019,19,1,293.7928,293.7928,85.26461,132.77855,1009.9,-2.08,-11.0,yes,yes,yes,300434063384820,SIMB3,Dart,MOSAiC,North
2019-10-20T23:01:23Z,1571612484,2019,23,1,293.9593,293.9593,85.2951,132.73707,1011.1,-2.08,-9.12,yes,yes,yes,300434063384820,SIMB3,Dart,MOSAiC,North
2019-10-21T03:01:26Z,1571626886,2019,3,1,294.126,294.126,85.31825,132.69417,1012.2,-2.08,-11.19,yes,yes,yes,300434063384820,SIMB3,Dart,MOSAiC,North
2019-10-21T07:01:29Z,1571641289,2019,7,1,294.2927,294.2927,85.3409,132.50964,1012.7,-2.08,-9.56,yes,yes,yes,300434063384820,SIMB3,Dart,MOSAiC,North
2019-10-21T15:01:09Z,1571670069,2019,15,1,294.6258,294.6258,85.3927,132.12318,1012.9,-2.08,-9.06,yes,yes,yes,300434063384820,SIMB3,Dart,MOSAiC,North
2019-10-21T19:01:55Z,1571684515,2019,19,1,294.793,294.793,85.41817,131.87298,1013.3,-2.08,-7.25,yes,yes,yes,300434063384820,SIMB3,Dart,MOSAiC,North
2019-10-21T23:01:14Z,1571698875,2019,23,1,294.9592,294.9592,85.44971,131.63588,1013.7,-2.08,-7.06,yes,yes,yes,300434063384820,SIMB3,Dart,MOSAiC,North
2019-10-22T03:01:26Z,1571713286,2019,3,1,295.126,295.126,85.47403,131.40502,1014.5,-2.08,-8.0,yes,yes,yes,300434063384820,SIMB3,Dart,MOSAiC,North
2019-10-22T07:03:04Z,1571727784,2019,7,3,295.2938,295.2938,85.49189,131.10922,1014.2,-2.08,-9.25,yes,yes,yes,300434063384820,SIMB3,Dart,MOSAiC,North
2019-10-22T11:01:14Z,1571742075,2019,11,1,295.4592,295.4592,85.50798,130.82687,1013.4,-2.08,-9.75,yes,yes,yes,300434063384820,SIMB3,Dart,MOSAiC,North
2019-10-22T15:01:09Z,1571756469,2019,15,1,295.6258,295.6258,85.52194,130.59932,1013.6,-2.08,-8.25,yes,yes,yes,300434063384820,SIMB3,Dart,MOSAiC,North
2019-10-22T19:01:46Z,1571770907,2019,19,1,295.7929,295.7929,85.53429,130.35695,1013.9,-2.08,-9.0,yes,yes,yes,300434063384820,SIMB3,Dart,MOSAiC,North
2019-10-22T23:01:23Z,1571785284,2019,23,1,295.9593,295.9593,85.54784,130.11899,1014.3,-2.08,-9.81,yes,yes,yes,300434063384820,SIMB3,Dart,MOSAiC,North
2019-10-23T03:01:17Z,1571799678,2019,3,1,296.1259,296.1259,85.55588,129.92671,1014.6,-2.08,-11.81,yes,yes,yes,300434063384820,SIMB3,Dart,MOSAiC,North
2019-10-23T07:01:55Z,1571814115,2019,7,1,296.293,296.293,85.56158,129.74748,1015.0,-2.08,-15.88,yes,yes,yes,300434063384820,SIMB3,Dart,MOSAiC,North
2019-10-23T11:01:14Z,1571828475,2019,11,1,296.4592,296.4592,85.56909,129.59117,1014.7,-2.08,-11.75,yes,yes,yes,300434063384820,SIMB3,Dart,MOSAiC,North
2019-10-23T15:01:17Z,1571842878,2019,15,1,296.6259,296.6259,85.57493,129.44746,1014.6,-2.08,-15.69,yes,yes,yes,300434063384820,SIMB3,Dart,MOSAiC,North
2019-10-23T19:02:03Z,1571857324,2019,19,2,296.7931,296.7931,85.58192,129.28974,1014.3,-2.08,-13.75,yes,yes,yes,300434063384820,SIMB3,Dart,MOSAiC,North
2019-10-23T23:01:49Z,1571871709,2019,23,1,296.9596,296.9596,85.59498,129.13043,1013.8,-2.08,-11.31,yes,yes,yes,300434063384820,SIMB3,Dart,MOSAiC,North
2019-10-24T03:01:35Z,1571886095,2019,3,1,297.1261,297.1261,85.60589,128.97752,1012.9,-2.08,-11.88,yes,yes,yes,300434063384820,SIMB3,Dart,MOSAiC,North
2019-10-24T07:01:46Z,1571900507,2019,7,1,297.2929,297.2929,85.61464,128.76253,1012.1,-2.08,-13.31,yes,yes,yes,300434063384820,SIMB3,Dart,MOSAiC,North
2019-10-24T11:01:32Z,1571914892,2019,11,1,297.4594,297.4594,85.62594,128.52472,1011.5,-2.08,-13.19,yes,yes,yes,300434063384820,SIMB3,Dart,MOSAiC,North
2019-10-24T15:01:00Z,1571929260,2019,15,1,297.6257,297.6257,85.63474,128.32374,1011.2,-2.08,-15.75,yes,yes,yes,300434063384820,SIMB3,Dart,MOSAiC,North
2019-10-24T23:01:23Z,1571958084,2019,23,1,297.9593,297.9593,85.64787,127.92684,1010.5,-2.08,-18.0,yes,yes,yes,300434063384820,SIMB3,Dart,MOSAiC,North
2019-10-25T03:01:43Z,1571972504,2019,3,1,298.1262,298.1262,85.65081,127.8299,1011.2,-2.08,-20.38,yes,yes,yes,300434063384820,SIMB3,Dart,MOSAiC,North
2019-10-25T07:04:04Z,1571987045,2019,7,4,298.2945,298.2945,85.65227,127.70131,1011.8,-2.08,-22.19,yes,yes,yes,300434063384820,SIMB3,Dart,MOSAiC,North
2019-10-25T11:00:40Z,1572001240,2019,11,0,298.4588,298.4588,85.65512,127.5986,1012.6,-2.08,-23.94,yes,yes,yes,300434063384820,SIMB3,Dart,MOSAiC,North
2019-10-25T15:01:09Z,1572015669,2019,15,1,298.6258,298.6258,85.6563,127.52658,1013.4,-2.08,-18.44,yes,yes,yes,300434063384820,SIMB3,Dart,MOSAiC,North
2019-10-25T19:01:46Z,1572030107,2019,19,1,298.7929,298.7929,85.656,127.43126,1014.5,-2.08,-23.88,yes,yes,yes,300434063384820,SIMB3,Dart,MOSAiC,North
2019-10-25T23:01:06Z,1572044466,2019,23,1,298.9591,298.9591,85.6582,127.3525,1015.8,-2.08,-25.62,yes,yes,yes,300434063384820,SIMB3,Dart,MOSAiC,North
2019-10-26T03:01:09Z,1572058869,2019,3,1,299.1258,299.1258,85.65975,127.30125,1017.2,-2.08,-22.19,yes,yes,yes,300434063384820,SIMB3,Dart,MOSAiC,North
2019-10-26T07:01:20Z,1572073281,2019,7,1,299.2926,299.2926,85.66139,127.20311,1018.6,-2.08,-25.69,yes,yes,yes,300434063384820,SIMB3,Dart,MOSAiC,North
2019-10-26T11:01:06Z,1572087666,2019,11,1,299.4591,299.4591,85.66597,127.11503,1020.4,-2.08,-27.62,yes,yes,yes,300434063384820,SIMB3,Dart,MOSAiC,North
2019-10-26T15:01:09Z,1572102069,2019,15,1,299.6258,299.6258,85.67034,127.05553,1021.8,-2.08,-25.25,yes,yes,yes,300434063384820,SIMB3,Dart,MOSAiC,North
2019-10-26T19:02:12Z,1572116532,2019,19,2,299.7932,299.7932,85.67572,126.9576,1023.0,-2.08,-23.75,yes,yes,yes,300434063384820,SIMB3,Dart,MOSAiC,North
2019-10-26T23:01:14Z,1572130875,2019,23,1,299.9592,299.9592,85.68482,126.85916,1024.3,-2.08,-26.25,yes,yes,yes,300434063384820,SIMB3,Dart,MOSAiC,North
2019-10-27T03:01:09Z,1572145269,2019,3,1,300.1258,300.1258,85.69392,126.79062,1025.6,-2.08,-26.5,yes,yes,yes,300434063384820,SIMB3,Dart,MOSAiC,North
2019-10-27T07:01:46Z,1572159707,2019,7,1,300.2929,300.2929,85.7033,126.68838,1026.4,-2.08,-26.25,yes,yes,yes,300434063384820,SIMB3,Dart,MOSAiC,North
2019-10-27T11:02:32Z,1572174153,2019,11,2,300.4601,300.4601,85.71556,126.58951,1027.2,-2.08,-26.12,yes,yes,yes,300434063384820,SIMB3,Dart,MOSAiC,North
2019-10-27T15:01:26Z,1572188486,2019,15,1,300.626,300.626,85.72828,126.4993,1027.9,-2.08,-25.69,yes,yes,yes,300434063384820,SIMB3,Dart,MOSAiC,North
2019-10-27T19:01:29Z,1572202889,2019,19,1,300.7927,300.7927,85.74225,126.34342,1028.1,-2.08,-22.0,yes,yes,yes,300434063384820,SIMB3,Dart,MOSAiC,North
2019-10-27T23:01:23Z,1572217284,2019,23,1,300.9593,300.9593,85.75995,126.18742,1028.2,-2.08,-16.0,yes,yes,yes,300434063384820,SIMB3,Dart,MOSAiC,North
2019-10-28T03:01:26Z,1572231686,2019,3,1,301.126,301.126,85.77768,126.07567,1029.1,-2.08,-14.19,yes,yes,yes,300434063384820,SIMB3,Dart,MOSAiC,North
2019-10-28T07:01:12Z,1572246072,2019,7,1,301.2925,301.2925,85.79529,125.94724,1030.3,-2.08,-14.62,yes,yes,yes,300434063384820,SIMB3,Dart,MOSAiC,North
2019-10-28T11:01:23Z,1572260484,2019,11,1,301.4593,301.4593,85.81162,125.82814,1031.0,-2.08,-12.56,yes,yes,yes,300434063384820,SIMB3,Dart,MOSAiC,North
2019-10-28T15:01:17Z,1572274878,2019,15,1,301.6259,301.6259,85.82414,125.70566,1031.1,-2.08,-12.25,yes,yes,yes,300434063384820,SIMB3,Dart,MOSAiC,North
2019-10-28T19:01:37Z,1572289298,2019,19,1,301.7928,301.7928,85.8373,125.51613,1031.2,-2.08,-17.0,yes,yes,yes,300434063384820,SIMB3,Dart,MOSAiC,North
2019-10-28T23:01:06Z,1572303666,2019,23,1,301.9591,301.9591,85.85035,125.34329,1030.5,-2.08,-15.25,yes,yes,yes,300434063384820,SIMB3,Dart,MOSAiC,North
2019-10-29T03:01:17Z,1572318078,2019,3,1,302.1259,302.1259,85.86077,125.18705,1030.7,-2.08,-20.69,yes,yes,yes,300434063384820,SIMB3,Dart,MOSAiC,North
2019-10-29T07:01:29Z,1572332489,2019,7,1,302.2927,302.2927,85.87252,124.98057,1030.3,-2.08,-21.94,yes,yes,yes,300434063384820,SIMB3,Dart,MOSAiC,North
2019-10-29T11:01:32Z,1572346892,2019,11,1,302.4594,302.4594,85.88496,124.81606,1030.1,-2.08,-20.69,yes,yes,yes,300434063384820,SIMB3,Dart,MOSAiC,North
2019-10-29T15:01:17Z,1572361278,2019,15,1,302.6259,302.6259,85.89426,124.67742,1030.8,-2.08,-23.06,yes,yes,yes,300434063384820,SIMB3,Dart,MOSAiC,North
2019-10-29T19:01:46Z,1572375707,2019,19,1,302.7929,302.7929,85.90463,124.50058,1030.5,-2.08,-17.75,yes,yes,yes,300434063384820,SIMB3,Dart,MOSAiC,North
2019-10-29T23:02:15Z,1572390135,2019,23,2,302.9599,302.9599,85.91581,124.35089,1030.4,-2.08,-16.38,yes,yes,yes,300434063384820,SIMB3,Dart,MOSAiC,North
2019-10-30T03:01:09Z,1572404469,2019,3,1,303.1258,303.1258,85.92405,124.21534,1030.3,-2.08,-15.75,yes,yes,yes,300434063384820,SIMB3,Dart,MOSAiC,North
2019-10-30T07:02:38Z,1572418958,2019,7,2,303.2935,303.2935,85.93376,124.03546,1030.2,-2.08,-15.62,yes,yes,yes,300434063384820,SIMB3,Dart,MOSAiC,North
2019-10-30T11:01:14Z,1572433275,2019,11,1,303.4592,303.4592,85.94275,123.90298,1030.4,-2.08,-17.19,yes,yes,yes,300434063384820,SIMB3,Dart,MOSAiC,North
2019-10-30T15:01:35Z,1572447695,2019,15,1,303.6261,303.6261,85.94856,123.76994,1031.1,-2.08,-21.19,yes,yes,yes,300434063384820,SIMB3,Dart,MOSAiC,North
2019-10-30T19:01:37Z,1572462098,2019,19,1,303.7928,303.7928,85.95743,123.5929,1030.8,-2.08,-20.69,yes,yes,yes,300434063384820,SIMB3,Dart,MOSAiC,North
2019-10-30T23:01:14Z,1572476475,2019,23,1,303.9592,303.9592,85.96653,123.45529,1031.4,-2.08,-21.88,yes,yes,yes,300434063384820,SIMB3,Dart,MOSAiC,North
2019-10-31T03:01:17Z,1572490878,2019,3,1,304.1259,304.1259,85.97224,123.34315,1031.6,-2.08,-20.62,yes,yes,yes,300434063384820,SIMB3,Dart,MOSAiC,North
2019-10-31T07:01:20Z,1572505281,2019,7,1,304.2926,304.2926,85.98105,123.20054,1031.2,-2.08,-20.12,yes,yes,yes,300434063384820,SIMB3,Dart,MOSAiC,North
2019-10-31T11:01:23Z,1572519684,2019,11,1,304.4593,304.4593,85.98934,123.09378,1031.2,-2.08,-22.12,yes,yes,yes,300434063384820,SIMB3,Dart,MOSAiC,North
2019-10-31T15:01:26Z,1572534086,2019,15,1,304.626,304.626,85.99512,122.99457,1031.1,-2.08,-21.19,yes,yes,yes,300434063384820,SIMB3,Dart,MOSAiC,North
2019-10-31T19:01:37Z,1572548498,2019,19,1,304.7928,304.7928,86.00341,122.86058,1031.0,-2.08,-23.81,yes,yes,yes,300434063384820,SIMB3,Dart,MOSAiC,North
2019-10-31T23:01:06Z,1572562866,2019,23,1,304.9591,304.9591,86.01276,122.77067,1030.5,-2.08,-19.12,yes,yes,yes,300434063384820,SIMB3,Dart,MOSAiC,North
2019-11-01T03:01:17Z,1572577278,2019,3,1,305.1259,305.1259,86.01924,122.69934,1030.9,-2.08,-17.88,yes,yes,yes,300434063384820,SIMB3,Dart,MOSAiC,North
2019-11-01T07:01:46Z,1572591707,2019,7,1,305.2929,305.2929,86.0281,122.61006,1031.3,-2.08,-17.88,yes,yes,yes,300434063384820,SIMB3,Dart,MOSAiC,North
2019-11-01T11:01:14Z,1572606075,2019,11,1,305.4592,305.4592,86.03646,122.57021,1031.8,-2.08,-18.12,yes,yes,yes,300434063384820,SIMB3,Dart,MOSAiC,North
2019-11-01T15:01:35Z,1572620495,2019,15,1,305.6261,305.6261,86.04069,122.53346,1032.2,-2.08,-18.12,yes,yes,yes,300434063384820,SIMB3,Dart,MOSAiC,North
2019-11-01T19:01:46Z,1572634907,2019,19,1,305.7929,305.7929,86.04678,122.46274,1032.8,-2.08,-18.06,yes,yes,yes,300434063384820,SIMB3,Dart,MOSAiC,North
2019-11-01T23:02:58Z,1572649379,2019,23,2,305.9604,305.9604,86.05408,122.41582,1032.9,-2.08,-18.38,yes,yes,yes,300434063384820,SIMB3,Dart,MOSAiC,North
2019-11-02T03:01:00Z,1572663660,2019,3,0,306.1257,306.1257,86.05736,122.35303,1033.1,-2.08,-19.25,yes,yes,yes,300434063384820,SIMB3,Dart,MOSAiC,North
2019-11-02T07:02:21Z,1572678141,2019,7,2,306.2933,306.2933,86.06441,122.23832,1033.1,-2.08,-26.62,yes,yes,yes,300434063384820,SIMB3,Dart,MOSAiC,North
2019-11-02T11:01:23Z,1572692484,2019,11,1,306.4593,306.4593,86.07263,122.13504,1032.9,-2.08,-24.81,yes,yes,yes,300434063384820,SIMB3,Dart,MOSAiC,North
2019-11-02T15:01:00Z,1572706860,2019,15,0,306.6257,306.6257,86.07883,122.01163,1032.5,-2.08,-21.0,yes,yes,yes,300434063384820,SIMB3,Dart,MOSAiC,North
2019-11-02T19:01:20Z,1572721281,2019,19,1,306.7926,306.7926,86.08618,121.81725,1031.8,-2.08,-18.88,yes,yes,yes,300434063384820,SIMB3,Dart,MOSAiC,North
2019-11-02T23:01:23Z,1572735684,2019,23,1,306.9593,306.9593,86.0973,121.66019,1031.2,-2.08,-16.12,yes,yes,yes,300434063384820,SIMB3,Dart,MOSAiC,North
2019-11-03T03:01:09Z,1572750069,2019,3,1,307.1258,307.1258,86.10574,121.45301,1031.5,-2.08,-21.62,yes,yes,yes,300434063384820,SIMB3,Dart,MOSAiC,North
2019-11-03T07:01:03Z,1572764463,2019,7,1,307.2924,307.2924,86.11381,121.09097,1030.2,-2.08,-21.19,yes,yes,yes,300434063384820,SIMB3,Dart,MOSAiC,North
2019-11-03T11:01:32Z,1572778892,2019,11,1,307.4594,307.4594,86.12552,120.78053,1029.6,-2.08,-19.0,yes,yes,yes,300434063384820,SIMB3,Dart,MOSAiC,North
2019-11-03T15:01:17Z,1572793278,2019,15,1,307.6259,307.6259,86.13223,120.52782,1029.2,-2.08,-18.12,yes,yes,yes,300434063384820,SIMB3,Dart,MOSAiC,North
2019-11-03T19:01:37Z,1572807698,2019,19,1,307.7928,307.7928,86.14046,120.22586,1028.7,-2.08,-19.56,yes,yes,yes,300434063384820,SIMB3,Dart,MOSAiC,North
2019-11-03T23:01:14Z,1572822075,2019,23,1,307.9592,307.9592,86.14967,119.964,1028.3,-2.08,-18.56,yes,yes,yes,300434063384820,SIMB3,Dart,MOSAiC,North
2019-11-04T03:01:09Z,1572836469,2019,3,1,308.1258,308.1258,86.1547,119.71047,1028.4,-2.08,-16.69,yes,yes,yes,300434063384820,SIMB3,Dart,MOSAiC,North
2019-11-04T07:01:20Z,1572850881,2019,7,1,308.2926,308.2926,86.16023,119.42578,1028.4,-2.08,-16.5,yes,yes,yes,300434063384820,SIMB3,Dart,MOSAiC,North
2019-11-04T11:01:14Z,1572865275,2019,11,1,308.4592,308.4592,86.16497,119.18958,1028.2,-2.08,-18.75,yes,yes,yes,300434063384820,SIMB3,Dart,MOSAiC,North
2019-11-04T15:01:26Z,1572879686,2019,15,1,308.626,308.626,86.16487,118.97145,1028.3,-2.08,-25.88,yes,yes,yes,300434063384820,SIMB3,Dart,MOSAiC,North
2019-11-04T19:01:37Z,1572894098,2019,19,1,308.7928,308.7928,86.16443,118.74874,1028.1,-2.08,-21.19,yes,yes,yes,300434063384820,SIMB3,Dart,MOSAiC,North
2019-11-04T23:02:15Z,1572908535,2019,23,2,308.9599,308.9599,86.16291,118.54274,1026.8,-2.08,-17.94,yes,yes,yes,300434063384820,SIMB3,Dart,MOSAiC,North
2019-11-05T03:01:26Z,1572922886,2019,3,1,309.126,309.126,86.1573,118.32297,1026.5,-2.08,-23.0,yes,yes,yes,300434063384820,SIMB3,Dart,MOSAiC,North
2019-11-05T07:02:38Z,1572937358,2019,7,2,309.2935,309.2935,86.15078,118.0891,1026.6,-2.08,-24.19,yes,yes,yes,300434063384820,SIMB3,Dart,MOSAiC,North
2019-11-05T11:01:32Z,1572951692,2019,11,1,309.4594,309.4594,86.14562,117.89846,1026.4,-2.08,-23.62,yes,yes,yes,300434063384820,SIMB3,Dart,MOSAiC,North
2019-11-05T15:01:09Z,1572966069,2019,15,1,309.6258,309.6258,86.13825,117.73892,1026.9,-2.08,-22.31,yes,yes,yes,300434063384820,SIMB3,Dart,MOSAiC,North
2019-11-05T19:01:55Z,1572980515,2019,19,1,309.793,309.793,86.13422,117.55821,1028.1,-2.08,-24.62,yes,yes,yes,300434063384820,SIMB3,Dart,MOSAiC,North
2019-11-05T23:01:40Z,1572994901,2019,23,1,309.9595,309.9595,86.13235,117.4112,1029.1,-2.08,-27.31,yes,yes,yes,300434063384820,SIMB3,Dart,MOSAiC,North
2019-11-06T03:01:43Z,1573009304,2019,3,1,310.1262,310.1262,86.12919,117.25234,1030.2,-2.08,-26.69,yes,yes,yes,300434063384820,SIMB3,Dart,MOSAiC,North
2019-11-06T07:01:29Z,1573023689,2019,7,1,310.2927,310.2927,86.1287,117.05958,1031.0,-2.08,-21.69,yes,yes,yes,300434063384820,SIMB3,Dart,MOSAiC,North